CCA9691 ZGGG-ZJHK

Flight info

Callsign CCA9691
Flight time N/A
Altitude 23600
Route VIBOS9 VIBOS R473 ZUH R200 BIGRO G221 GIVIV W605 DOMGO DOMGO6XA
Aircraft A20N/M-SDE2E3FGHIRWXY/LB1

Departure

Time 2026-05-01 15:17
Airport Guangzhou Baiyun International Airport (ZGGG)

Arrival

Time N/A
Airport Haikou Meilan International Airport (ZJHK)
Time Latitude Longitude Altitude Speed Heading
2026-05-01 14:40 23.40198 113.30677 58 ft 0 kts 219°
2026-05-01 15:04 23.40197 113.30677 58 ft 0 kts 219°
2026-05-01 15:08 23.40210 113.30687 50 ft 4 kts 211°
2026-05-01 15:08 23.40234 113.30698 53 ft 4 kts 178°
2026-05-01 15:08 23.40256 113.30689 51 ft 4 kts 112°
2026-05-01 15:08 23.40258 113.30683 51 ft 0 kts 104°
2026-05-01 15:12 23.40257 113.30685 51 ft 2 kts 104°
2026-05-01 15:12 23.40249 113.30726 54 ft 9 kts 104°
2026-05-01 15:13 23.40206 113.30901 54 ft 3 kts 105°
2026-05-01 15:14 23.40213 113.31045 54 ft 7 kts
2026-05-01 15:14 23.40276 113.31063 51 ft 13 kts 15°
2026-05-01 15:14 23.40542 113.31136 54 ft 26 kts 14°
2026-05-01 15:15 23.40905 113.31239 53 ft 5 kts 45°
2026-05-01 15:15 23.40891 113.31394 53 ft 20 kts 118°
2026-05-01 15:16 23.40430 113.31308 53 ft 86 kts 193°
2026-05-01 15:16 23.38559 113.30802 471 ft 161 kts 194°
2026-05-01 15:17 23.36139 113.30056 1748 ft 213 kts 192°
2026-05-01 15:18 23.31250 113.28813 5104 ft 234 kts 193°
2026-05-01 15:18 23.29625 113.28482 6224 ft 242 kts 187°
2026-05-01 15:19 23.24357 113.28441 9127 ft 265 kts 184°
2026-05-01 15:19 23.20421 113.28400 10486 ft 298 kts 184°
2026-05-01 15:19 23.18280 113.28230 10888 ft 319 kts 192°
2026-05-01 15:20 23.13743 113.27137 12187 ft 341 kts 196°
2026-05-01 15:20 23.11418 113.26569 13065 ft 345 kts 196°
2026-05-01 15:20 23.09269 113.26047 13852 ft 350 kts 196°
2026-05-01 15:21 23.06878 113.25466 14609 ft 354 kts 196°
2026-05-01 15:21 23.04459 113.24879 15364 ft 358 kts 196°
2026-05-01 15:21 23.02000 113.24328 16112 ft 364 kts 192°
2026-05-01 15:21 22.99441 113.24156 16832 ft 374 kts 182°
2026-05-01 15:22 22.91479 113.25785 18859 ft 393 kts 172°
2026-05-01 15:22 22.88799 113.26436 19461 ft 397 kts 171°
2026-05-01 15:23 22.86089 113.27090 20078 ft 401 kts 171°
2026-05-01 15:23 22.83356 113.27747 20681 ft 405 kts 171°
2026-05-01 15:23 22.80592 113.28411 21276 ft 409 kts 171°
2026-05-01 15:23 22.77804 113.29081 21863 ft 413 kts 170°
2026-05-01 15:24 22.74983 113.29758 22452 ft 417 kts 170°
2026-05-01 15:24 22.72142 113.30441 23028 ft 421 kts 170°
2026-05-01 15:24 22.69306 113.31122 23277 ft 424 kts 170°
2026-05-01 15:24 22.66429 113.31815 23379 ft 424 kts 169°
2026-05-01 15:25 22.63546 113.32509 23488 ft 425 kts 169°
2026-05-01 15:25 22.60650 113.33378 23578 ft 427 kts 164°
2026-05-01 15:25 22.57859 113.34352 23589 ft 427 kts 164°
2026-05-01 15:25 22.54989 113.35348 23587 ft 427 kts 164°
2026-05-01 15:26 22.52158 113.36328 23590 ft 427 kts 164°
2026-05-01 15:26 22.49366 113.37292 23589 ft 427 kts 164°
2026-05-01 15:26 22.46499 113.38282 23592 ft 427 kts 164°
2026-05-01 15:26 22.43665 113.39259 23589 ft 427 kts 164°
2026-05-01 15:27 22.40833 113.40235 23592 ft 427 kts 164°
2026-05-01 15:27 22.38003 113.41210 23589 ft 427 kts 164°
2026-05-01 15:27 22.35173 113.42186 23592 ft 427 kts 164°
2026-05-01 15:28 22.29434 113.43745 23588 ft 423 kts 179°
2026-05-01 15:28 22.26515 113.43541 23591 ft 419 kts 193°
2026-05-01 15:28 22.23795 113.42584 23593 ft 416 kts 208°
2026-05-01 15:29 22.19422 113.38618 23591 ft 410 kts 237°
2026-05-01 15:29 22.18103 113.35913 23598 ft 408 kts 250°
2026-05-01 15:29 22.16082 113.30236 23591 ft 408 kts 249°
2026-05-01 15:30 22.13989 113.24552 23590 ft 408 kts 249°
2026-05-01 15:31 22.09382 113.13387 23593 ft 407 kts 246°
2026-05-01 15:31 22.07048 113.07829 23593 ft 407 kts 247°
2026-05-01 15:32 22.04726 113.02266 23589 ft 407 kts 247°
2026-05-01 15:32 22.02445 112.96689 23601 ft 406 kts 248°
2026-05-01 15:33 21.99197 112.88258 23590 ft 406 kts 248°
2026-05-01 15:34 21.95799 112.79907 23592 ft 407 kts 240°